Météo par heure à Juncewo

Ce jour, 16 Juin, Mercredi

Heure Température Précipitation Vent Pression Humidité
00:00 +11°C° 0 mm 3 m/s 754 mmHg 84%
01:00 +11°C° 0 mm 3 m/s 755 mmHg 86%
02:00 +10°C° 0 mm 3 m/s 755 mmHg 88%
03:00 +10°C° 0 mm 2 m/s 755 mmHg 89%
04:00 +9°C° 0 mm 2 m/s 755 mmHg 90%
05:00 +12°C° 0 mm 2 m/s 755 mmHg 84%
06:00 +13°C° 0 mm 2 m/s 755 mmHg 77%
07:00 +15°C° 0 mm 2 m/s 755 mmHg 71%
08:00 +17°C° 0 mm 2 m/s 755 mmHg 66%
09:00 +18°C° 0 mm 2 m/s 755 mmHg 61%
10:00 +20°C° 0 mm 2 m/s 755 mmHg 56%
11:00 +21°C° 0 mm 2 m/s 755 mmHg 54%
12:00 +23°C° 0 mm 2 m/s 755 mmHg 52%
13:00 +24°C° 0 mm 1 m/s 755 mmHg 50%
14:00 +24°C° 0 mm 1 m/s 755 mmHg 49%
15:00 +24°C° 0 mm 1 m/s 754 mmHg 48%
16:00 +24°C° 0 mm 1 m/s 754 mmHg 48%
17:00 +23°C° 0 mm 2 m/s 754 mmHg 55%
18:00 +21°C° 0 mm 2 m/s 754 mmHg 63%
19:00 +20°C° 0 mm 2 m/s 754 mmHg 70%
20:00 +19°C° 0 mm 3 m/s 754 mmHg 72%
21:00 +17°C° 0 mm 3 m/s 754 mmHg 74%
22:00 +16°C° 0 mm 3 m/s 755 mmHg 76%
23:00 +14°C° 0 mm 3 m/s 755 mmHg 78%

Demain, 17 Juin, Jeudi

Heure Température Précipitation Vent Pression Humidité
00:00 +14°C° 0 mm 3 m/s 755 mmHg 81%
01:00 +13°C° 0 mm 3 m/s 755 mmHg 83%
02:00 +13°C° 0 mm 3 m/s 755 mmHg 84%
03:00 +13°C° 0 mm 3 m/s 755 mmHg 86%
04:00 +13°C° 0 mm 3 m/s 755 mmHg 87%
05:00 +16°C° 0 mm 3 m/s 755 mmHg 83%
06:00 +18°C° 0 mm 3 m/s 755 mmHg 79%
07:00 +20°C° 0 mm 4 m/s 755 mmHg 75%
08:00 +21°C° 0 mm 4 m/s 755 mmHg 72%
09:00 +23°C° 0 mm 4 m/s 755 mmHg 68%
10:00 +26°C° 0 mm 4 m/s 755 mmHg 65%
11:00 +27°C° 0 mm 5 m/s 755 mmHg 61%
12:00 +27°C° 0 mm 5 m/s 755 mmHg 58%
13:00 +28°C° 0 mm 5 m/s 755 mmHg 55%
14:00 +28°C° 0 mm 4 m/s 755 mmHg 54%
15:00 +28°C° 0 mm 4 m/s 754 mmHg 53%
16:00 +29°C° 0 mm 4 m/s 754 mmHg 52%
17:00 +27°C° 0 mm 4 m/s 754 mmHg 60%
18:00 +26°C° 0 mm 4 m/s 754 mmHg 67%
19:00 +23°C° 0 mm 4 m/s 754 mmHg 74%
20:00 +22°C° 0 mm 4 m/s 755 mmHg 74%
21:00 +21°C° 0 mm 4 m/s 755 mmHg 74%
22:00 +19°C° 0 mm 4 m/s 755 mmHg 74%
23:00 +18°C° 0 mm 4 m/s 755 mmHg 77%

Après-demain, 18 Juin, Vendredi

Heure Température Précipitation Vent Pression Humidité
00:00 +18°C° 0 mm 4 m/s 754 mmHg 80%
01:00 +17°C° 0 mm 3 m/s 754 mmHg 83%
02:00 +17°C° 0 mm 3 m/s 754 mmHg 84%
03:00 +16°C° 0 mm 3 m/s 754 mmHg 86%
04:00 +16°C° 0 mm 3 m/s 754 mmHg 87%
05:00 +18°C° 0 mm 3 m/s 754 mmHg 82%
06:00 +19°C° 0 mm 4 m/s 755 mmHg 76%
07:00 +21°C° 0 mm 4 m/s 755 mmHg 71%
08:00 +23°C° 0 mm 5 m/s 754 mmHg 67%
09:00 +25°C° 0 mm 5 m/s 754 mmHg 63%
10:00 +27°C° 0 mm 5 m/s 754 mmHg 59%
11:00 +28°C° 0 mm 5 m/s 754 mmHg 55%
12:00 +29°C° 0 mm 5 m/s 754 mmHg 52%
13:00 +30°C° 0 mm 5 m/s 753 mmHg 49%
14:00 +30°C° 0 mm 4 m/s 753 mmHg 49%
15:00 +30°C° 0 mm 4 m/s 753 mmHg 49%
16:00 +30°C° 0 mm 4 m/s 753 mmHg 49%
17:00 +29°C° 0 mm 4 m/s 753 mmHg 57%
18:00 +28°C° 0 mm 3 m/s 753 mmHg 64%
19:00 +26°C° 0 mm 3 m/s 752 mmHg 72%
20:00 +25°C° 0 mm 3 m/s 753 mmHg 75%
21:00 +24°C° 0 mm 3 m/s 753 mmHg 78%
22:00 +21°C° 0 mm 3 m/s 753 mmHg 81%
23:00 +21°C° 0 mm 4 m/s 753 mmHg 83%

19 Juin, Samedi

Heure Température Précipitation Vent Pression Humidité
00:00 +20°C° 0 mm 4 m/s 753 mmHg 85%
01:00 +20°C° 0 mm 4 m/s 753 mmHg 86%
02:00 +19°C° 0 mm 4 m/s 753 mmHg 88%
03:00 +19°C° 0 mm 3 m/s 753 mmHg 90%
04:00 +18°C° 0 mm 3 m/s 753 mmHg 92%
05:00 +20°C° 0 mm 4 m/s 753 mmHg 86%
06:00 +22°C° 0 mm 4 m/s 753 mmHg 80%
07:00 +23°C° 0 mm 4 m/s 753 mmHg 75%
08:00 +26°C° 0 mm 5 m/s 753 mmHg 70%
09:00 +27°C° 0 mm 5 m/s 752 mmHg 65%
10:00 +29°C° 0 mm 5 m/s 752 mmHg 59%
11:00 +30°C° 0 mm 4 m/s 752 mmHg 56%
12:00 +30°C° 0 mm 4 m/s 752 mmHg 53%
13:00 +32°C° 0 mm 4 m/s 752 mmHg 50%
14:00 +32°C° 0 mm 4 m/s 752 mmHg 50%
15:00 +33°C° 0 mm 3 m/s 751 mmHg 49%
16:00 +33°C° 0 mm 3 m/s 751 mmHg 48%
17:00 +31°C° 0 mm 3 m/s 751 mmHg 55%
18:00 +29°C° 0 mm 3 m/s 751 mmHg 62%
19:00 +28°C° 0 mm 3 m/s 751 mmHg 69%
20:00 +27°C° 0 mm 3 m/s 751 mmHg 71%
21:00 +25°C° 0 mm 3 m/s 751 mmHg 74%
22:00 +24°C° 0 mm 3 m/s 751 mmHg 77%
23:00 +22°C° 0.1 mm 3 m/s 751 mmHg 80%

20 Juin, Dimanche

Heure Température Précipitation Vent Pression Humidité
00:00 +23°C° 0.1 mm 2 m/s 751 mmHg 83%
01:00 +21°C° 0.1 mm 2 m/s 751 mmHg 86%
02:00 +21°C° 0 mm 2 m/s 751 mmHg 87%
03:00 +20°C° 0 mm 2 m/s 751 mmHg 89%
04:00 +20°C° 0 mm 3 m/s 751 mmHg 90%
05:00 +21°C° 0.2 mm 3 m/s 751 mmHg 86%
06:00 +22°C° 0.2 mm 3 m/s 751 mmHg 83%
07:00 +24°C° 0.2 mm 3 m/s 751 mmHg 79%
08:00 +26°C° 0 mm 3 m/s 751 mmHg 73%
09:00 +27°C° 0 mm 4 m/s 751 mmHg 67%
10:00 +29°C° 0 mm 5 m/s 751 mmHg 60%
11:00 +29°C° 0 mm 4 m/s 751 mmHg 57%
12:00 +30°C° 0 mm 4 m/s 751 mmHg 54%
13:00 +32°C° 0 mm 4 m/s 751 mmHg 51%
14:00 +32°C° 0 mm 4 m/s 750 mmHg 51%
15:00 +32°C° 0 mm 4 m/s 750 mmHg 51%
16:00 +32°C° 0 mm 4 m/s 750 mmHg 50%
17:00 +30°C° 0 mm 4 m/s 750 mmHg 57%
18:00 +28°C° 0 mm 3 m/s 750 mmHg 64%
19:00 +27°C° 0 mm 3 m/s 749 mmHg 71%
20:00 +26°C° 0 mm 3 m/s 749 mmHg 73%
21:00 +25°C° 0 mm 3 m/s 749 mmHg 74%
22:00 +22°C° 0 mm 4 m/s 749 mmHg 76%
23:00 +22°C° 0 mm 3 m/s 749 mmHg 78%

21 Juin, Lundi

Heure Température Précipitation Vent Pression Humidité
00:00 +21°C° 0 mm 3 m/s 749 mmHg 80%
01:00 +20°C° 0 mm 3 m/s 749 mmHg 82%
02:00 +20°C° 0 mm 3 m/s 749 mmHg 84%
03:00 +19°C° 0 mm 3 m/s 749 mmHg 85%
04:00 +19°C° 0 mm 3 m/s 749 mmHg 87%
05:00 +21°C° 0 mm 4 m/s 749 mmHg 82%
06:00 +22°C° 0 mm 5 m/s 749 mmHg 77%
07:00 +25°C° 0 mm 5 m/s 749 mmHg 72%
08:00 +27°C° 0 mm 5 m/s 748 mmHg 67%
09:00 +28°C° 0 mm 6 m/s 748 mmHg 62%
10:00 +29°C° 0 mm 6 m/s 748 mmHg 56%
11:00 +30°C° 0 mm 5 m/s 748 mmHg 54%
12:00 +32°C° 0 mm 5 m/s 748 mmHg 51%
13:00 +33°C° 0 mm 5 m/s 748 mmHg 49%
14:00 +33°C° 0 mm 5 m/s 748 mmHg 49%
15:00 +33°C° 0 mm 4 m/s 747 mmHg 50%
16:00 +33°C° 0 mm 4 m/s 747 mmHg 51%
17:00 +30°C° 0.3 mm 3 m/s 747 mmHg 59%
18:00 +28°C° 0.3 mm 3 m/s 747 mmHg 67%
19:00 +26°C° 0.3 mm 2 m/s 747 mmHg 76%
20:00 +26°C° 1.1 mm 2 m/s 747 mmHg 77%
21:00 +25°C° 1.1 mm 3 m/s 747 mmHg 78%
22:00 +24°C° 1.1 mm 3 m/s 748 mmHg 79%
23:00 +22°C° 0.7 mm 3 m/s 748 mmHg 82%
Voir plus

Nous avons besoin de votre consentement

Meteoprog et ses fournisseurs de services peuvent stocker et accéder à des données personnelles telles que des cookies, des identifiants d'appareils ou d'autres technologies similaires sur votre appareil et traiter ces données pour personnaliser le contenu et les publicités, ainsi que pour fournir des fonctionnalités de médias sociaux et analyser le trafic.

  • Stocker et/ou accéder à des informations sur votre appareil

    Des cookies, des identifiants d'appareils ou d'autres informations peuvent être stockés ou accessibles sur votre appareil aux fins indiquées ci-dessus.

  • Annonces et contenus personnalisés, mesure des annonces et des contenus, connaissance de l'audience et développement de produits

    Les annonces et le contenu peuvent être personnalisés en fonction d'un profil. D'autres données peuvent être ajoutées pour mieux personnaliser les annonces et le contenu. Les performances des publicités et du contenu peuvent être mesurées. Il est possible d'obtenir des informations sur le public qui a vu les publicités et le contenu. Ces données peuvent être utilisées pour développer ou améliorer l'expérience de l'utilisateur, les systèmes et les logiciels.

En cliquant sur "J'accepte", vous autorisez l'utilisation de cookies, des identifiants d'appareils, des balises web ou d'autres technologies similaires. Vos paramètres peuvent être modifiés dans le navigateur de votre appareil.

Dans certains cas, des intérêts légitimes peuvent être invoqués plutôt qu'un consentement. Vous pouvez en savoir plus à ce sujet dans notre Politique de confidentialité et de cookies.